Location: *
(43.1036°S, 179.6840°W)
Time: 01:03:39
(UTC+00:00)

Daily predictions for brighter satellites

Satellite Brightness Start Highest point End
(mag) Time Altitude Azimuth Time Altitude Azimuth Time Altitude Azimuth
Cosmos 2369 Rocket 2.4 06:41:27 10° NNW 06:47:04 83° WSW 06:52:45 10° SSE
Meteor 1-31 Rocket 3.0 06:43:45 10° SSE 06:47:19 42° E 06:50:48 10° N
BlueWalker 3 4.0 06:46:10 10° SW 06:48:59 19° S 06:51:48 10° SE
Cosmos 2263 4.2 06:45:43 10° NNW 06:51:20 80° ENE 06:57:04 10° SSE
Cosmos 1703 Rocket 4.4 06:47:34 10° NNE 06:51:22 30° E 06:55:14 10° SSE
CRYOSAT 2 4.4 06:51:14 10° NNE 06:56:05 68° E 07:01:02 10° S
Okean 2 3.3 06:53:29 10° N 06:57:28 80° E 07:01:32 10° S
Okean 1-7 2.9 06:56:11 10° N 07:00:21 65° E 07:04:37 10° SSE
Cosmos 1733 Rocket 3.6 06:56:20 10° SSW 07:00:40 62° W 07:04:57 10° N
RESURS DK-1 4.3 07:05:16 11° E 07:05:16 11° E 07:05:47 10° E
Cosmos 2266 Rocket 4.2 07:02:00 10° NNE 07:07:56 47° E 07:13:49 10° SSE
ADEOS Rocket 4.1 07:02:48 10° S 07:08:06 44° WSW 07:13:20 10° NW
SL-27 R/B 4.2 07:08:53 10° WSW 07:09:56 13° WNW 07:11:00 10° NW
Cosmos 44 3.8 07:06:37 10° SSW 07:11:48 51° SE 07:16:12 14° NE
CZ-4 R/B 3.3 07:11:04 10° ESE 07:11:46 11° E 07:11:46 11° E
USA 306 2.3 07:10:02 10° NW 07:13:51 81° NE 07:17:13 10° SE
USA 238 DEB 3.5 07:09:58 10° SW 07:16:43 88° SE 07:22:44 11° NE
USA 238 3.5 07:10:06 10° SW 07:16:50 87° SE 07:22:48 11° NE
SL-24 R/B - RUBIN 2 4.5 07:14:31 10° NNE 07:17:58 24° ENE 07:21:21 10° ESE
SL-08 ROCKET BODY 4.4 07:12:57 10° N 07:18:42 58° E 07:24:33 10° SSE
Cosmos 1553 Rocket 4.2 07:13:59 10° S 07:20:28 79° W 07:26:46 10° N
SJ-6B 3.9 07:18:50 10° SE 07:21:43 21° E 07:22:23 20° ENE
Cosmos 405 Rocket 3.7 07:22:24 10° SSW 07:25:46 42° W 07:29:04 10° NNW
Cosmos 2251 Rocket 3.7 07:21:32 10° SSW 07:26:52 55° ESE 07:30:55 17° NE
SL-24 R/B 4.4 07:22:00 10° S 07:27:11 81° E 07:32:02 10° N
Cosmos 2297 Rocket 3.9 07:26:45 10° S 07:30:32 18° SE 07:33:07 14° ESE
Cosmos 1140 Rocket 3.7 07:25:50 10° SSW 07:31:00 70° WNW 07:36:08 10° N
USA 59 Rocket 3.9 07:23:29 10° WSW 07:32:04 28° SSW 07:40:33 10° SE
DELTA 2 DEB (DPAF) 3.9 07:28:44 13° NNE 07:32:22 67° ESE 07:36:33 10° S
Resurs 01 Rocket 3.2 07:33:15 10° SE 07:35:34 17° ESE 07:35:34 17° ESE
Cosmos 1908 Rocket 3.9 07:38:29 10° SSW 07:43:01 70° W 07:47:29 10° N
NOAA 6 4.2 07:37:53 10° S 07:43:05 77° WSW 07:48:12 10° NNW
YAOGAN 1 2.6 07:38:53 10° SSE 07:43:16 84° WSW 07:47:35 10° NNW
Meteor 2-20 4.4 07:38:22 10° S 07:44:30 65° E 07:49:29 16° NNE
Cosmos 407 Rocket 3.6 07:43:15 10° SSW 07:48:30 79° WNW 07:52:45 16° NNE
CZ-2C R/B 4.2 07:46:58 10° S 07:50:16 36° WSW 07:53:29 10° NW
Helios 1B rocket 2.3 07:49:03 10° S 07:52:59 80° WSW 07:56:51 10° NNW
Cosmos 1420 Rocket 3.9 07:52:34 10° NNW 07:57:54 80° ENE 08:03:16 10° SSE
Cosmos 2056 Rocket 3.5 07:53:39 10° N 07:58:55 62° ENE 08:04:09 10° SSE
SPOT 1/Viking Rocket 3.5 07:54:20 10° SSE 07:59:34 66° E 08:04:44 10° N
USA 308 3.9 07:58:41 10° WSW 08:02:19 33° NW 08:03:38 26° N
Cosmos 1782 Rocket 3.6 07:59:14 10° S 08:03:47 82° W 08:06:19 26° N
Cosmos 1703 3.3 08:00:15 10° NNW 08:03:56 70° W 08:07:42 10° S
Cosmos 1825 3.6 08:05:45 21° SE 08:05:45 21° SE 08:07:09 10° SSE
USA 215 3.5 08:00:29 28° ENE 08:04:05 61° SSE 08:10:37 10° SW
Okean O Rocket 3.9 08:02:01 10° SE 08:02:15 11° SE 08:02:15 11° SE
Cosmos 489 Rocket 4.3 08:00:23 10° NNW 08:06:36 76° ENE 08:12:52 10° SSE
USA 305 4.4 08:10:03 10° SW 08:11:22 14° SSW 08:11:53 14° S
Cosmos 1892 3.7 08:17:19 31° SSE 08:17:19 31° SSE 08:19:19 10° SSE
Resurs 1-3 3.9 08:13:04 10° S 08:17:28 68° WSW 08:21:48 10° NNW
Cosmos 1300 Rocket 3.9 08:13:14 10° SSW 08:17:41 65° W 08:19:41 31° NNW
ACS3 Solar Sail 2.0 08:11:35 10° SSE 08:17:50 51° E 08:20:00 37° NNE
USA 276 4.3 08:17:02 10° SW 08:17:52 18° SW 08:17:52 18° SW
ISS -1.0 08:19:16 10° NW 08:19:30 11° NW 08:19:30 11° NW
Cosmos 1655 Rocket 4.3 08:18:08 10° NNW 08:24:23 70° W 08:30:41 10° S
SAR-Lupe-2 3.7 08:22:05 10° S 08:25:44 71° WSW 08:25:59 67° WNW
CZ-4B R/B 3.2 08:23:11 10° SSE 08:26:17 52° SE 08:26:17 52° SE
Cosmos 2315 Rocket 4.3 08:20:54 10° SSW 08:27:10 66° W 08:31:41 19° N
BlueWalker 3 2.7 08:24:02 10° SW 08:27:32 43° SSE 08:27:32 43° SSE
CZ-4B R/B 3.3 08:25:06 10° SSE 08:29:56 86° WSW 08:32:11 32° NNW
SJ 16-02 3.3 08:29:59 10° SSE 08:32:07 17° SE 08:32:07 17° SE
CSL-04 Debris 4.3 08:29:39 10° SSE 08:34:51 53° E 08:34:51 53° E
CZ-4C R/B 3.9 08:37:09 48° W 08:37:09 48° W 08:40:13 10° SSW
Feng Yun 1-1 Rocket 4.4 08:35:16 10° SSE 08:40:55 57° E 08:40:55 57° E
RESURS DK-1 2.8 08:40:19 43° WNW 08:41:21 60° WSW 08:45:24 10° SSE
Cosmos 2285 Rocket 4.1 08:40:05 10° SSW 08:46:31 58° ESE 08:47:16 54° E
NOSS 3-1 (C) 4.4 08:41:10 10° SSW 08:47:09 31° SE 08:48:20 29° ESE
CZ-4 R/B 1.9 08:43:28 10° S 08:47:14 53° WSW 08:47:14 53° WSW
Cosmos 1656 3.5 08:46:36 29° NNW 08:49:27 84° WSW 08:54:58 10° SSE
Nadezhda 2 Rocket 4.3 08:49:40 51° N 08:51:24 87° E 08:57:37 10° S
SL-24 DEB 4.5 08:53:44 65° WNW 08:53:56 66° W 08:58:39 10° S
Cosmos 1850 Rocket 4.5 08:53:59 10° SSW 08:58:28 50° SE 08:58:28 50° SE
SL-08 R/B 4.4 08:58:09 61° N 08:59:22 87° E 09:05:49 10° S
CARTOSAT-1 4.2 08:56:37 10° S 09:00:34 54° WSW 09:00:34 54° WSW
CZ-4B R/B 3.2 09:03:44 10° SSE 09:09:21 81° WSW 09:09:27 81° W
Cosmos 2360 4.5 09:10:48 59° SSE 09:10:48 59° SSE 09:15:25 10° SSE
Cosmos 968 Rocket 4.2 09:04:32 10° SSW 09:08:41 45° SSE 09:08:41 45° SSE
MOS 1-B 4.4 09:04:47 10° SSE 09:09:57 67° SE 09:09:57 67° SE
Cosmos 2227 Rocket 2.9 09:05:41 10° SSW 09:10:29 44° SE 09:10:29 44° SE
Resurs 01 Rocket 2.6 09:08:42 10° S 09:13:00 45° WSW 09:13:02 45° WSW
Cosmos 2297 Rocket 2.2 09:09:36 10° SSW 09:14:55 77° SW 09:14:55 77° SW
Cosmos 1697 Rocket 4.1 09:19:11 27° SE 09:19:11 27° SE 09:21:46 10° SSE
ATLAS CENTAUR R/B 3.7 09:07:04 10° SW 09:16:45 70° SE 09:18:27 58° E
Cosmos 1745 Rocket 4.0 09:22:25 68° SE 09:22:25 68° SE 09:27:54 10° S
USA 59 Rocket 3.8 09:17:58 10° SW 09:25:59 24° S 09:33:15 10° ESE
CSL-04 Rocket 4.4 09:30:39 10° S 09:35:55 50° WSW 09:36:08 49° WSW
ATLAS 3B R/B 4.0 09:36:11 10° SSW 09:41:11 24° SE 09:41:43 24° SE
Okean O Rocket 3.4 09:37:06 10° S 09:39:34 30° SSW 09:39:34 30° SSW
USA 215 3.9 09:47:49 43° WNW 09:47:49 43° WNW 09:53:30 10° WSW
Cosmos 2263 Rocket 3.5 09:51:22 10° SSW 09:54:54 34° SSE 09:54:54 34° SSE
Terra 4.1 09:54:07 10° SSE 09:55:21 18° SSE 09:55:21 18° SSE
ACS3 Solar Sail 3.5 09:56:01 10° S 10:01:24 29° WSW 10:05:10 17° WNW
SJ 16-02 3.9 10:07:26 10° SSW 10:08:49 19° SW 10:08:49 19° SW
NOSS 3-1 (A) 4.4 10:16:38 10° SSW 10:21:15 41° S 10:21:15 41° S
SL-12 R/B(2) 4.4 10:17:00 10° SW 10:24:13 58° W 10:24:13 58° W
Cosmos 1980 Rocket 4.0 10:32:05 26° SSE 10:32:05 26° SSE 10:34:28 10° SSE
ATLAS 2AS CENTAUR R/B 3.6 10:35:13 42° SSE 10:35:13 42° SSE 10:39:43 10° SE
Cosmos 2227 Rocket 4.4 10:50:15 10° SW 10:52:18 19° WSW 10:52:18 19° WSW
USA 59 Rocket 2.8 11:09:51 10° SSW 11:19:14 39° SSE 11:21:50 33° ESE
ATLAS 3B R/B 4.1 11:26:17 10° SW 11:28:56 27° SW 11:28:56 27° SW
Cosmos 2333 Rocket 4.4 11:51:34 19° SE 11:51:34 19° SE 11:53:12 10° SSE
Cosmos 2322 Rocket 4.3 11:51:39 21° SSE 11:51:39 21° SSE 11:53:25 10° SSE
